FW8396 Weather Reports


Display with metric or nautical units.
time (UTC)temp
F
wind
direction
speed
MPH
gust
MPH
rain 1hr
in
rain 24hr
in
rain mn
in
humidity
%
barometer
mb
20260508203030 71 0 1.0 4.0 0.00 0.06 0.06 93 1011.9
20260508201531 70 74 1.0 4.0 0.00 0.06 0.06 93 1011.9
20260508200039 70 74 1.0 6.0 0.00 0.06 0.06 93 1012.1
20260508194530 70 0 0.0 3.0 0.00 0.06 0.06 93 1012.4
20260508193031 69 0 0.0 4.0 0.02 0.06 0.06 93 1012.7
20260508191533 69 62 1.0 3.0 0.02 0.06 0.06 92 1012.7
20260508190038 69 0 0.0 2.0 0.04 0.06 0.06 92 1012.8
20260508184553 69 0 1.0 5.0 0.04 0.06 0.06 92 1012.8
20260508183031 69 72 1.0 3.0 0.03 0.04 0.04 92 1012.8
20260508181544 69 355 1.0 9.0 0.03 0.04 0.04 92 1013.2
20260508180032 68 83 2.0 6.0 0.01 0.02 0.02 92 1013.3
20260508174531 68 0 0.0 4.0 0.01 0.02 0.02 91 1013.7
20260508173027 68 0 0.0 5.0 0.01 0.01 0.01 91 1014.1
20260508171530 68 109 1.0 4.0 0.01 0.01 0.01 91 1014.1
20260508170036 67 0 0.0 5.0 0.01 0.01 0.01 91 1013.9
20260508164531 68 68 2.0 6.0 0.01 0.01 0.01 90 1014.3
20260508163028 68 29 2.0 7.0 0.00 0.00 0.00 89 1014.4
20260508161532 68 327 2.0 8.0 0.00 0.00 0.00 89 1014.7
20260508160031 68 63 1.0 6.0 0.00 0.00 0.00 89 1015.1
20260508154528 68 0 0.0 6.0 0.00 0.00 0.00 88 1015.2
20260508153030 68 40 2.0 5.0 0.00 0.00 0.00 88 1014.5
20260508151532 68 21 2.0 4.0 0.00 0.00 0.00 87 1014.7
20260508150032 68 0 0.0 11.0 0.00 0.00 0.00 86 1014.7
20260508144545 68 88 0.0 8.0 0.00 0.00 0.00 86 1015.2
20260508143028 69 0 1.0 7.0 0.00 0.00 0.00 85 1015.2
20260508141530 69 0 0.0 4.0 0.00 0.00 0.00 85 1015.2
20260508140029 69 94 2.0 7.0 0.00 0.00 0.00 85 1014.6
20260508134537 68 0 0.0 3.0 0.00 0.00 0.00 85 1014.9
20260508133036 69 85 1.0 5.0 0.00 0.00 0.00 85 1014.9
20260508131528 69 57 1.0 3.0 0.00 0.00 0.00 84 1015.0
20260508130028 69 57 0.0 5.0 0.00 0.00 0.00 83 1015.0
20260508124533 69 0 0.0 4.0 0.00 0.00 0.00 84 1015.0
20260508123028 69 0 0.0 5.0 0.00 0.00 0.00 83 1014.7
20260508121535 69 0 0.0 5.0 0.00 0.00 0.00 84 1014.9
20260508120029 68 355 1.0 6.0 0.00 0.00 0.00 84 1014.9
20260508114530 68 0 0.0 4.0 0.00 0.00 0.00 85 1014.8
20260508113028 68 39 0.0 4.0 0.00 0.00 0.00 85 1015.0
20260508111533 68 137 2.0 8.0 0.00 0.00 0.00 85 1014.5
20260508110044 68 97 1.0 4.0 0.00 0.00 0.00 85 1014.7
20260508104527 68 0 0.0 4.0 0.00 0.00 0.00 86 1014.8
20260508103028 68 0 1.0 5.0 0.00 0.00 0.00 86 1014.5
20260508101530 68 56 0.0 5.0 0.00 0.00 0.00 86 1014.5
20260508100031 69 0 1.0 7.0 0.00 0.00 0.00 86 1014.6
20260508094529 69 78 3.0 8.0 0.00 0.00 0.00 85 1014.3
20260508093035 69 84 3.0 10.0 0.00 0.00 0.00 84 1014.3
20260508091529 70 56 2.0 6.0 0.00 0.00 0.00 83 1014.4
20260508090029 70 88 2.0 6.0 0.00 0.00 0.00 81 1014.8
20260508084532 70 0 1.0 6.0 0.00 0.00 0.00 81 1015.0
20260508083037 70 32 1.0 6.0 0.00 0.00 0.00 80 1014.9
20260508081528 70 65 1.0 4.0 0.00 0.00 0.00 80 1014.7
20260508080028 71 0 0.0 6.0 0.00 0.00 0.00 79 1014.7
20260508074539 71 331 1.0 5.0 0.00 0.00 0.00 79 1015.1
20260508073033 71 0 0.0 4.0 0.00 0.00 0.00 79 1014.9
20260508071535 71 65 0.0 4.0 0.00 0.00 0.00 78 1014.7
20260508070029 71 74 1.0 5.0 0.00 0.00 0.00 78 1014.9
20260508064534 71 63 1.0 5.0 0.00 0.00 0.00 78 1014.8
20260508063030 71 51 1.0 4.0 0.00 0.00 0.00 77 1015.0
20260508061528 71 68 0.0 4.0 0.00 0.00 0.00 77 1015.2
20260508060034 71 87 1.0 5.0 0.00 0.00 0.00 77 1015.2
20260508054532 71 28 2.0 7.0 0.00 0.00 0.00 76 1015.3
20260508053052 72 355 1.0 4.0 0.00 0.00 0.00 76 1015.2
20260508051529 72 41 1.0 5.0 0.00 0.00 0.00 76 1015.1
20260508050030 73 0 1.0 5.0 0.00 0.00 0.00 75 1015.1
20260508044530 73 81 2.0 8.0 0.00 0.00 0.00 74 1015.1
20260508043031 73 76 1.0 12.0 0.00 0.00 0.00 73 1015.2
20260508041552 74 65 2.0 13.0 0.00 0.00 0.00 74 1015.3
20260508040028 74 78 2.0 9.0 0.00 0.00 0.00 74 1015.1
20260508034533 74 64 1.0 8.0 0.00 0.00 0.00 73 1015.5
20260508033032 74 346 1.0 7.0 0.00 0.00 0.00 73 1015.7
20260508031535 75 27 1.0 7.0 0.00 0.00 0.00 72 1015.9
20260508030034 75 71 2.0 7.0 0.00 0.00 0.00 71 1015.7
20260508024531 76 63 1.0 7.0 0.00 0.00 0.00 70 1015.6
20260508023033 76 0 0.0 4.0 0.00 0.00 0.00 69 1015.6
20260508021530 76 0 1.0 5.0 0.00 0.00 0.00 69 1015.6
20260508020039 76 63 3.0 8.0 0.00 0.00 0.00 69 1015.4
20260508014529 76 45 2.0 7.0 0.00 0.00 0.00 70 1015.4
20260508013029 76 355 1.0 6.0 0.00 0.00 0.00 70 1015.2
20260508011529 77 24 0.0 5.0 0.00 0.00 0.00 70 1015.5
20260508010028 77 307 1.0 10.0 0.00 0.00 0.00 71 1015.7
20260508004533 77 22 1.0 6.0 0.00 0.00 0.00 71 1015.1
20260508003035 77 304 1.0 7.0 0.00 0.00 0.00 71 1015.3
20260508001528 78 0 0.0 3.0 0.00 0.00 0.00 72 1015.1
20260508000032 78 0 1.0 5.0 0.00 0.00 0.00 71 1015.3
20260507234532 78 0 1.0 4.0 0.00 0.00 0.00 71 1015.2
20260507233050 78 13 1.0 6.0 0.00 0.00 0.00 71 1014.9
20260507231535 78 14 0.0 8.0 0.00 0.00 0.00 71 1015.0
20260507230028 79 355 2.0 10.0 0.00 0.00 0.00 70 1014.7
20260507224531 79 98 2.0 8.0 0.00 0.00 0.00 70 1014.7
20260507223029 79 69 1.0 9.0 0.00 0.00 0.00 69 1014.6
20260507221534 80 347 3.0 10.0 0.00 0.00 0.00 69 1014.6
20260507220031 79 0 1.0 7.0 0.00 0.00 0.00 70 1014.6
20260507214530 80 0 1.0 8.0 0.00 0.00 0.00 69 1014.8
20260507213033 80 323 1.0 9.0 0.00 0.00 0.00 69 1015.0
20260507211530 80 67 2.0 8.0 0.00 0.00 0.00 69 1015.2
20260507210030 80 18 1.0 7.0 0.00 0.00 0.00 69 1015.4
20260507204530 79 0 2.0 11.0 0.00 0.00 0.00 70 1015.4